Regional Weather Roundup
Issued by NWS

Home | Current Version | Previous Version | Text Only | Print | Product List | Glossary On
Versions: 1 2 3 4 5 6 7 8 9 10 11 12 13 14 15 16 17 18 19 20 21 22 23 24 25 26 27 28 29 30 31 32 33 34 35 36 37 38 39 40 41 42 43 44 45 46 47 48 49 50
000
ASUS45 KBOI 260810
RWRID

IDAHO REGIONAL WEATHER ROUNDUP
NATIONAL WEATHER SERVICE BOISE ID
100 AM MST SUN FEB 26 2017

NOTE: "FAIR" INDICATES FEW OR NO CLOUDS BELOW 12000 FEET
WITH NO SIGNIFICANT WEATHER AND/OR OBSTRUCTIONS TO VISIBILITY

IDZ012-014-260900-
SOUTHWEST IDAHO


CITY           SKY/WX    TMP DP  RH WIND       PRES   REMARKS
BOISE          MOCLDY    32  17  54 SE9       29.95F WCI  24
CALDWELL       MOCLDY    27  21  78 E8        29.96F WCI  19
MOUNTAIN HOME  PTCLDY    23  23 100 E7        29.96S WCI  15
$$

IDZ016-017-260900-
SOUTHCENTRAL IDAHO


CITY           SKY/WX    TMP DP  RH WIND       PRES   REMARKS
BURLEY         CLEAR     23  11  60 S10       29.93F WCI  12
JEROME           N/A    N/A N/A N/A MISG      29.95F
TWIN FALLS     CLEAR     19   7  59 S15       29.94F WCI   5
$$

IDZ019>023-260900-
SOUTHEAST IDAHO


CITY           SKY/WX    TMP DP  RH WIND       PRES   REMARKS
IDAHO FALLS    CLOUDY    10   7  87 SW7       29.90F WCI  -1
POCATELLO      CLOUDY    20   9  62 S15       29.93S WCI   6
REXBURG        CLOUDY    11   8  88 SW8       29.89S WCI  -1
$$

IDZ006-010-011-018-031-032-260900-
CENTRAL IDAHO MOUNTAINS


CITY           SKY/WX    TMP DP  RH WIND       PRES   REMARKS
MCCALL         CLOUDY    18  11  74 S5        29.81F WCI  11
HAILEY         CLEAR      9   3  78 NW8       29.91S WCI  -4
STANLEY          N/A     10   5  80 SE6       29.82F WCI   0
SALMON         CLOUDY    27   9  46 SW13G20   29.85F WCI  16
CHALLIS        MOCLDY    16   9  74 NW3       29.84F
$$

IDZ002-004-006-007-026-260900-
NORTHERN IDAHO


CITY           SKY/WX    TMP DP  RH WIND       PRES   REMARKS
LEWISTON       CLOUDY    34  26  72 CALM      29.88F
LOWELL           N/A     31  28  89 CALM      29.94F
COEUR D`ALENE  LGT SNOW  28  27  93 S8        29.81F FOG     WCI  20
MULLAN PASS    LGT SNOW  16  14  92 VRB6      29.64F VSB 3/4 WCI   7
$$



USA.gov is the U.S. government's official web portal to all federal, state and local government web resources and services.